Flag for Argentina Weather past 2 weeks in Tucumán, Tucumán, Argentina

Now
77 °F

Scattered clouds.


Feels Like: 79 °F
Forecast: 62 / 83 °F
Wind: 2 mph from Southwest

Location: Tucuman Aerodrome

Current Time: Sep 2, 2014 at 12:47:46 PM

Latest Report: Sep 2, 2014 at 11:00 AM


Visibility: 4 mi

Pressure: 29.83 "Hg

Humidity: 69%

Dew point: 66 °F

Location of TucumánLocation

Historic Weather in Tucumán — Graph

°F

Tucumán temperature yesterday

Maximum temperature yesterday: 88 °F (at 4:00 PM)
Minimum temperature yesterday: 57 °F (at 8:00 AM)
Average temperature yesterday: 71 °F

Past Weeks' High & Low Weather Summary

 TemperatureHumidityPressure
High99 °F (Aug 23, 4:00 PM)88% (Sep 2, 8:00 AM)30.36 "Hg (Sep 2, 8:00 AM)
Low41 °F (Aug 27, 7:00 AM)24% (Aug 23, 2:00 PM)29.45 "Hg (Aug 23, 4:00 PM)
Average67 °F56%29.91 "Hg
* Reported Aug 18 11:00 AM — Sep 2 11:00 AM, Tucumán, Weather by CustomWeather, © 2014

Note: Actual official high and low records may vary slightly from our data, if they occured in-between our weather recording intervals... More about our weather records

Advertising

Tucumán weather history for previous 24 hours

 ConditionsComfort  
Time TempWeatherWind HumidityBarometerVisibility
11:00 AM
Sep 2
77 °FScattered clouds.2 mph69%29.83 "Hg4 mi
10:00 AM75 °FScattered clouds.No wind74%29.83 "Hg4 mi
9:00 AM70 °FOvercast.2 mph83%29.83 "Hg3 mi
8:00 AM66 °FBroken clouds.2 mph88%29.80 "Hg3 mi
7:00 AM68 °FOvercast.2 mph78%29.74 "Hg3 mi
6:00 AM66 °FOvercast.7 mph83%29.74 "Hg2 mi
5:00 AM68 °FClear.7 mph73%29.71 "Hg2 mi
4:00 AM68 °FClear.6 mph69%29.68 "Hg2 mi
3:00 AM68 °FClear.5 mph69%29.65 "Hg2 mi
2:00 AM68 °FClear.6 mph69%29.65 "Hg2 mi
1:00 AM68 °FClear.7 mph69%29.65 "Hg2 mi
12:00 AM70 °FClear.7 mph64%29.68 "Hg2 mi
11:00 PM
Sep 1
75 °FMostly cloudy.5 mph54%29.71 "Hg2 mi
10:00 PM75 °FClear.7 mph54%29.68 "Hg2 mi
9:00 PM72 °FClear.9 mph61%29.65 "Hg2 mi
8:00 PM73 °FClear.6 mph57%29.62 "Hg2 mi
7:00 PM79 °FClear.9 mph48%29.56 "Hg2 mi
6:00 PM86 °FClear.8 mph38%29.53 "Hg2 mi
5:00 PM86 °FClear.9 mph38%29.53 "Hg2 mi
4:00 PM88 °FClear.9 mph35%29.56 "Hg2 mi
2:00 PM84 °FClear.5 mph40%29.65 "Hg3 mi
1:00 PM82 °FClear.No wind40%29.68 "Hg3 mi
12:00 PM77 °FClear.3 mph44%29.74 "Hg2 mi
Weather by CustomWeather, © 2014

See weather overviewHow to use our weather pages